Location: Mountain View
(37.3861°N, 122.0839°W)
Time: 13:25:46
(UTC-07:00)

Tiangong 2 - Visible Passes

Search period start: 19 June 2018 00:00
Search period end: 29 June 2018 00:00
Orbit: 291 x 297 km, 42.8° (Epoch: 19 June)

Date Brightness Start Highest point End Pass type
(mag) Time Alt. Az. Time Alt. Az. Time Alt. Az.
25 Jun 2.7 04:40:35 14° S 04:41:42 17° SE 04:43:31 10° E visible
26 Jun 1.4 04:45:53 20° SSW 04:47:15 37° SSE 04:49:39 10° E visible
27 Jun 0.4 04:51:02 18° WSW 04:52:46 84° SSE 04:55:19 10° ENE visible
28 Jun 1.2 04:56:03 12° W 04:58:15 49° NNW 05:00:45 10° ENE visible
